This demonstration page uses our WeatherBlox Daily Observations layout. Learn more.

Hourly Observations for March 25, 2015

Temp ( °F °C ) Dew Point ( °F °C ) Humidity (%) Winds ( mph kmh ) Pressure ( in mb ) Visibility ( mi km ) Precip ( " mm )
12:15 am 00:15 Cloudy with Mist and Fog 42 5.7 40 4.6 93 93 SSW 3 6 29.91 1013 5 8.0467 0 0
12:35 am 00:35 Partly Cloudy with Mist and Fog 42 5.5 40 4.4 93 93 WNW 3 6 29.91 1013 5 8.0467 0 0
12:55 am 00:55 Clear 42 5.6 40 4.2 91 91 WNW 7 11 29.91 1013 7 11.26538 0 0
1:15 am 01:15 Partly Cloudy 42 5.4 39 3.9 90 90 WSW 5 7 29.91 1013 7 11.26538 0 0
1:35 am 01:35 Mostly Cloudy 46 7.6 37 3 73 73 Calm 29.91 1013 10 16.0934 0 0
1:55 am 01:55 Partly Cloudy 43 6.1 37 2.5 78 78 SW 8 13 29.91 1013 10 16.0934 0 0
2:15 am 02:15 Partly Cloudy 43 6.1 36 2 75 75 SW 6 9 29.91 1013 10 16.0934 0 0
2:35 am 02:35 Clear 41 5.1 36 2.2 82 82 SSW 6 9 29.91 1013 10 16.0934 0 0
2:55 am 02:55 Clear 41 5 35 1.5 78 78 SSW 7 11 29.91 1013 10 16.0934 0 0
3:15 am 03:15 Clear 38 3.4 35 1.6 88 88 SSW 8 13 29.97 1015 7 11.26538 0 0
3:35 am 03:35 Partly Cloudy 38 3.3 35 1.4 88 88 SSW 8 13 29.97 1015 10 16.0934 0 0
3:55 am 03:55 Mostly Cloudy 38 3.5 36 2 90 90 SW 6 9 29.97 1015 10 16.0934 0 0
4:15 am 04:15 Mostly Cloudy 39 4.1 35 1.9 86 86 SSW 6 9 29.94 1014 10 16.0934 0 0
4:35 am 04:35 Cloudy 40 4.2 35 1.6 83 83 SSW 6 9 29.97 1015 10 16.0934 0 0
4:55 am 04:55 Cloudy 41 5 35 1.5 78 78 SW 5 7 29.91 1013 10 16.0934 0 0
5:15 am 05:15 Cloudy 42 5.4 35 1.7 77 77 SW 5 7 29.91 1013 10 16.0934 0 0
5:35 am 05:35 Cloudy 42 5.6 35 1.5 75 75 W 5 7 29.94 1014 10 16.0934 0 0
5:55 am 05:55 Cloudy 45 7.2 34 0.9 65 65 W 7 11 29.94 1014 10 16.0934 0 0
6:15 am 06:15 Cloudy 43 6.3 33 0.3 66 66 W 7 11 29.94 1014 10 16.0934 0 0
6:35 am 06:35 Partly Cloudy 44 6.5 33 0.3 65 65 WNW 7 11 29.97 1015 10 16.0934 0 0
6:55 am 06:55 Mostly Cloudy 44 6.5 32 0.2 64 64 WNW 6 9 29.97 1015 10 16.0934 0 0
7:15 am 07:15 Cloudy 44 6.4 33 0.5 66 66 N 5 7 30 1016 10 16.0934 0 0
9:35 am 09:35 Cloudy 42 5.4 33 0.7 72 72 NNE 22 35 30.12 1020 10 16.0934 0 0
9:55 am 09:55 Cloudy 41 5.2 33 0.7 73 73 NNE 21 33 30.12 1020 10 16.0934 0 0
10:15 am 10:15 Mostly Cloudy 40 4.5 32 0.2 74 74 NNE 23 37 30.12 1020 10 16.0934 0 0
10:35 am 10:35 Mostly Cloudy with Light Drizzle 40 4.5 33 0.6 76 76 NNE 23 37 30.15 1021 10 16.0934 0 0
10:55 am 10:55 Mostly Cloudy 40 4.2 32 0 74 74 N 24 39 30.15 1021 10 16.0934 0 0
11:15 am 11:15 Cloudy 39 3.7 32 0 77 77 N 20 31 30.15 1021 10 16.0934 0 0
11:35 am 11:35 Cloudy 39 3.9 32 0 76 76 N 22 35 30.18 1022 10 16.0934 0 0
11:55 am 11:55 Cloudy with Light Rain 38 3.5 31 -0.4 76 76 N 18 30 30.18 1022 10 16.0934 0 0
12:15 pm 12:15 Cloudy with Light Rain 37 2.5 32 -0.1 83 83 N 20 31 30.21 1023 7 11.26538 0 0
12:35 pm 12:35 Cloudy with Light Rain 35 1.9 32 -0.1 87 87 N 21 33 30.21 1023 4 6.43736 0.01 0.254
12:55 pm 12:55 Cloudy with Light Rain 37 3 32 0 81 81 N 17 28 30.21 1023 10 16.0934 0.02 0.508
1:15 pm 13:15 Cloudy 38 3.2 32 -0.2 79 79 N 17 28 30.21 1023 10 16.0934 0 0
1:35 pm 13:35 Cloudy 38 3.6 30 -1.2 71 71 N 21 33 30.24 1024 10 16.0934 0 0
1:55 pm 13:55 Cloudy 39 4 31 -0.8 71 71 N 17 28 30.24 1024 10 16.0934 0 0
2:15 pm 14:15 Cloudy 40 4.2 30 -1.3 68 68 N 20 31 30.24 1024 10 16.0934 0 0
2:35 pm 14:35 Cloudy 40 4.4 29 -1.5 66 66 N 14 22 30.18 1022 10 16.0934 0 0
2:55 pm 14:55 Cloudy 41 4.8 29 -1.7 63 63 N 18 30 30.18 1022 10 16.0934 0 0
3:15 pm 15:15 Cloudy 42 5.3 28 -2 60 60 N 16 26 30.18 1022 10 16.0934 0 0
3:35 pm 15:35 Cloudy 42 5.5 27 -2.8 55 55 N 21 33 30.18 1022 10 16.0934 0 0
3:55 pm 15:55 Partly Cloudy 42 5.8 27 -2.7 55 55 N 20 31 30.18 1022 10 16.0934 0 0
4:15 pm 16:15 Mostly Cloudy 43 6 27 -3 53 53 N 16 26 30.18 1022 10 16.0934 0 0
4:35 pm 16:35 Cloudy 44 6.5 26 -3.3 50 50 N 18 30 30.18 1022 10 16.0934 0 0
4:55 pm 16:55 Cloudy 44 6.5 25 -4 47 47 N 18 30 30.18 1022 10 16.0934 0 0
5:15 pm 17:15 Cloudy 44 6.7 25 -3.7 48 48 N 17 28 30.18 1022 10 16.0934 0 0
5:35 pm 17:35 Partly Cloudy 45 7 25 -4 46 46 N 17 28 30.18 1022 10 16.0934 0 0
5:55 pm 17:55 Sunny 45 7.2 23 -5 42 42 N 20 31 30.18 1022 10 16.0934 0 0
6:15 pm 18:15 Sunny 45 7 23 -5 42 42 N 16 26 30.18 1022 10 16.0934 0 0
6:35 pm 18:35 Sunny 45 7 22 -5.4 41 41 N 15 24 30.18 1022 10 16.0934 0 0
6:55 pm 18:55 Sunny 45 7 22 -5.3 42 42 N 18 30 30.18 1022 10 16.0934 0 0
7:15 pm 19:15 Sunny 44 6.6 23 -5.2 43 43 N 14 22 30.18 1022 10 16.0934 0 0
7:35 pm 19:35 Sunny 44 6.5 22 -5.5 42 42 N 16 26 30.18 1022 10 16.0934 0 0
7:55 pm 19:55 Clear 43 6 22 -5.3 45 45 N 13 20 30.21 1023 10 16.0934 0 0
8:15 pm 20:15 Clear 41 5.1 22 -5.5 47 47 N 9 15 30.21 1023 10 16.0934 0 0
8:35 pm 20:35 Clear 39 3.7 22 -5.6 51 51 N 8 13 30.24 1024 10 16.0934 0 0
8:55 pm 20:55 Clear 36 2.2 21 -6 55 55 N 9 15 30.27 1025 10 16.0934 0 0
9:15 pm 21:15 Clear 35 1.8 22 -5.7 58 58 N 8 13 30.27 1025 10 16.0934 0 0
9:35 pm 21:35 Clear 35 1.9 22 -5.6 58 58 N 8 13 30.27 1025 10 16.0934 0 0
9:55 pm 21:55 Clear 35 1.5 22 -5.8 59 59 N 7 11 30.27 1025 10 16.0934 0 0
10:15 pm 22:15 Clear 33 0.5 21 -6 62 62 N 8 13 30.33 1027 10 16.0934 0 0
10:35 pm 22:35 Clear 33 0.7 21 -6 61 61 N 8 13 30.33 1027 10 16.0934 0 0
10:55 pm 22:55 Clear 29 -1.5 19 -7.2 66 66 N 7 11 30.33 1027 10 16.0934 0 0
11:15 pm 23:15 Clear 31 -0.4 21 -6 66 66 N 7 11 30.33 1027 10 16.0934 0 0
11:35 pm 23:35 Clear 26 -3.3 18 -7.6 72 72 N 7 11 30.36 1028 10 16.0934 0 0
11:55 pm 23:55 Clear 26 -3.5 19 -7.5 74 74 N 6 9 30.36 1028 10 16.0934 0 0

Powered by AerisWeather